Weather History for KPTN - September, 2013

Change the Weather History Date:

Monday, September 23, 2013

  Actual Average Record
Temperature  
Mean Temperature 76 °F -  
Max Temperature 87 °F 82 °F 98 °F (1998)
Min Temperature 66 °F 66 °F 53 °F (1999)
Cooling Degree Days 12    
Growing Degree Days 26 (Base 50)    
Moisture  
Dew Point 72 °F    
Average Humidity 84    
Maximum Humidity 94    
Minimum Humidity 70    
Precipitation  
Precipitation 0.00 in - - ()
Sea Level Pressure  
Sea Level Pressure 29.83 in    
Wind  
Wind Speed 6 mph (East)    
Max Wind Speed 14 mph    
Max Gust Speed 17 mph    
Visibility 10 miles    
Events      
Averages and records for this station are not official NWS values.
T = Trace of Precipitation, MM = Missing Value Source: NWS Daily Summary

Daily Weather History Graph

Daily Weather History Graph

Search for Another Location

Airport or City:

Trip Planner

Search our weather history database for the weather conditions in past years. The results will help you decide how hot, cold, wet, or windy it might be!

Date:

Astronomy

Sep. 23, 2013 Rise Set
Actual Time 6:54 AM CDT 7:00 PM CDT
Civil Twilight 6:30 AM CDT 7:24 PM CDT
Nautical Twilight 6:02 AM CDT 7:51 PM CDT
Astronomical Twilight 5:34 AM CDT 8:19 PM CDT
Moon 9:53 PM CDT (9/23) 10:53 AM CDT (9/23)
Length of Visible Light 12h 53m
Length of Day
12h 05m
Waning Gibbous, 81% of the Moon is Illuminated
Sep 23
Waning Gibbous
Sep 26
Last Quarter
Oct 4
New
Oct 11
First Quarter
Oct 18
Full

Hourly Weather History & Observations

Time (CDT) Temp. Heat Index Dew Point Humidity Pressure Visibility Wind Dir Wind Speed Gust Speed Precip Events Conditions
12:15 AM 68.0 °F - 66.2 °F 94% 29.83 in 10.0 mi NE 3.5 mph - N/A   Scattered Clouds
12:35 AM 69.8 °F - 66.2 °F 88% 29.83 in 10.0 mi NE 3.5 mph - N/A   Overcast
12:55 AM 69.8 °F - 66.2 °F 88% 29.83 in 10.0 mi NE 4.6 mph - N/A   Overcast
1:15 AM 69.8 °F - 66.2 °F 88% 29.83 in 10.0 mi NE 5.8 mph - N/A   Overcast
1:35 AM 69.8 °F - 66.2 °F 88% 29.83 in 10.0 mi NE 5.8 mph - N/A   Overcast
1:55 AM 69.8 °F - 66.2 °F 88% 29.82 in 10.0 mi ENE 6.9 mph - N/A   Overcast
2:15 AM 69.8 °F - 66.2 °F 88% 29.82 in 10.0 mi NE 6.9 mph - N/A   Scattered Clouds
2:35 AM 68.0 °F - 66.2 °F 94% 29.82 in 10.0 mi ENE 4.6 mph - N/A   Clear
2:55 AM 68.0 °F - 66.2 °F 94% 29.82 in 10.0 mi ENE 3.5 mph - N/A   Clear
3:15 AM 68.0 °F - 66.2 °F 94% 29.81 in 10.0 mi NE 5.8 mph - N/A   Clear
3:35 AM 68.0 °F - 64.4 °F 88% 29.81 in 10.0 mi NE 4.6 mph - N/A   Clear
3:55 AM 68.0 °F - 66.2 °F 94% 29.81 in 10.0 mi NE 6.9 mph - N/A   Clear
4:15 AM 68.0 °F - 64.4 °F 88% 29.81 in 10.0 mi ENE 4.6 mph - N/A   Clear
4:36 AM 66.2 °F - 64.4 °F 94% 29.81 in 10.0 mi NE 4.6 mph - N/A   Clear
4:55 AM 68.0 °F - 64.4 °F 88% 29.81 in 10.0 mi NE 5.8 mph - N/A   Clear
5:15 AM 66.2 °F - 64.4 °F 94% 29.82 in 10.0 mi NE 5.8 mph - N/A   Clear
5:35 AM 66.2 °F - 64.4 °F 94% 29.82 in 10.0 mi ENE 5.8 mph - N/A   Clear
5:55 AM 66.2 °F - 64.4 °F 94% 29.82 in 10.0 mi ENE 5.8 mph - N/A   Clear
6:15 AM 68.0 °F - 64.4 °F 88% 29.83 in 10.0 mi ENE 6.9 mph - N/A   Clear
6:35 AM 68.0 °F - 64.4 °F 88% 29.83 in 10.0 mi NE 6.9 mph - N/A   Clear
6:55 AM 68.0 °F - 64.4 °F 88% 29.84 in 10.0 mi ENE 5.8 mph - N/A   Clear
7:15 AM 68.0 °F - 66.2 °F 94% 29.84 in 10.0 mi NE 5.8 mph - N/A   Clear
7:35 AM 69.8 °F - 66.2 °F 88% 29.84 in 10.0 mi NE 5.8 mph - N/A   Clear
7:55 AM 69.8 °F - 66.2 °F 88% 29.84 in 10.0 mi NE 6.9 mph - N/A   Clear
8:15 AM 71.6 °F - 68.0 °F 88% 29.84 in 10.0 mi NE 8.1 mph - N/A   Clear
8:35 AM 73.4 °F - 68.0 °F 83% 29.84 in 10.0 mi ENE 8.1 mph - N/A   Partly Cloudy
8:55 AM 75.2 °F - 69.8 °F 83% 29.84 in 10.0 mi East 11.5 mph - N/A   Partly Cloudy
9:15 AM 75.2 °F - 69.8 °F 83% 29.84 in 10.0 mi East 11.5 mph - N/A   Clear
9:35 AM 77.0 °F - 71.6 °F 83% 29.84 in 10.0 mi ENE 10.4 mph - N/A   Partly Cloudy
9:55 AM 78.8 °F - 71.6 °F 78% 29.84 in 10.0 mi East 12.7 mph - N/A   Partly Cloudy
10:15 AM 80.6 °F 84.6 °F 71.6 °F 74% 29.85 in 10.0 mi East 6.9 mph - N/A   Partly Cloudy
10:35 AM 80.6 °F 85.4 °F 73.4 °F 79% 29.85 in 10.0 mi East 10.4 mph - N/A   Partly Cloudy
10:55 AM 82.4 °F 88.2 °F 73.4 °F 74% 29.85 in 10.0 mi East 6.9 mph - N/A   Clear
11:15 AM 82.4 °F 89.5 °F 75.2 °F 79% 29.85 in 10.0 mi ESE 10.4 mph - N/A   Clear
11:35 AM 84.2 °F 92.3 °F 75.2 °F 74% 29.85 in 10.0 mi ESE 10.4 mph - N/A   Partly Cloudy
11:55 AM 84.2 °F 92.3 °F 75.2 °F 74% 29.85 in 10.0 mi ESE 11.5 mph 17.3 mph N/A   Scattered Clouds
12:15 PM 86.0 °F 95.1 °F 75.2 °F 70% 29.84 in 10.0 mi ESE 10.4 mph - N/A   Scattered Clouds
12:35 PM 86.0 °F 95.1 °F 75.2 °F 70% 29.84 in 10.0 mi East 10.4 mph - N/A   Scattered Clouds
12:55 PM 84.2 °F 92.3 °F 75.2 °F 74% 29.83 in 10.0 mi ESE 10.4 mph - N/A   Mostly Cloudy
1:15 PM 86.0 °F 95.1 °F 75.2 °F 70% 29.83 in 10.0 mi ESE 9.2 mph - N/A   Mostly Cloudy
1:35 PM 86.0 °F 95.1 °F 75.2 °F 70% 29.82 in 10.0 mi ENE 8.1 mph - N/A   Mostly Cloudy
1:55 PM 84.2 °F 92.3 °F 75.2 °F 74% 29.82 in 10.0 mi East 5.8 mph - N/A   Overcast
2:15 PM 84.2 °F 92.3 °F 75.2 °F 74% 29.81 in 10.0 mi East 6.9 mph - N/A   Overcast
2:35 PM 84.2 °F 92.3 °F 75.2 °F 74% 29.81 in 10.0 mi East 5.8 mph - N/A   Overcast
2:55 PM 84.2 °F 94.1 °F 77.0 °F 79% 29.81 in 10.0 mi ESE 8.1 mph - N/A   Overcast
3:15 PM 86.0 °F 99.3 °F 78.8 °F 79% 29.81 in 10.0 mi ESE 13.8 mph - N/A   Mostly Cloudy
3:35 PM 87.8 °F 99.7 °F 77.0 °F 70% 29.80 in 10.0 mi ESE 13.8 mph - N/A   Mostly Cloudy
3:55 PM 84.2 °F 94.1 °F 77.0 °F 79% 29.80 in 10.0 mi SE 10.4 mph - N/A   Mostly Cloudy
4:15 PM 86.0 °F 96.9 °F 77.0 °F 74% 29.80 in 10.0 mi SE 9.2 mph - N/A   Mostly Cloudy
4:35 PM 87.8 °F 99.7 °F 77.0 °F 70% 29.80 in 10.0 mi SSE 11.5 mph - N/A   Mostly Cloudy
4:55 PM 87.8 °F 99.7 °F 77.0 °F 70% 29.80 in 10.0 mi SE 11.5 mph - N/A   Mostly Cloudy
5:15 PM 84.2 °F 92.3 °F 75.2 °F 74% 29.80 in 10.0 mi SE 10.4 mph - N/A   Mostly Cloudy
5:35 PM 84.2 °F 92.3 °F 75.2 °F 74% 29.81 in 10.0 mi SE 9.2 mph - N/A   Partly Cloudy
5:55 PM 84.2 °F 92.3 °F 75.2 °F 74% 29.81 in 10.0 mi SSE 8.1 mph - N/A   Clear
6:15 PM 82.4 °F 89.5 °F 75.2 °F 79% 29.81 in 10.0 mi SE 5.8 mph - N/A   Mostly Cloudy
6:35 PM 82.4 °F 89.5 °F 75.2 °F 79% 29.81 in 10.0 mi ESE 6.9 mph - N/A   Mostly Cloudy
6:55 PM 80.6 °F 86.2 °F 75.2 °F 84% 29.82 in 10.0 mi ESE 6.9 mph - N/A   Partly Cloudy
7:35 PM 80.6 °F 87.1 °F 77.0 °F 89% 29.82 in 10.0 mi ESE 6.9 mph - N/A   Partly Cloudy
7:55 PM 80.6 °F 87.1 °F 77.0 °F 89% 29.83 in 10.0 mi ESE 4.6 mph - N/A   Clear
8:15 PM 80.6 °F 87.1 °F 77.0 °F 89% 29.83 in 10.0 mi East 4.6 mph - N/A   Scattered Clouds
8:35 PM 78.8 °F - 77.0 °F 94% 29.84 in 10.0 mi ESE 3.5 mph - N/A   Mostly Cloudy
8:55 PM 78.8 °F - 77.0 °F 94% 29.84 in 10.0 mi East 4.6 mph - N/A   Overcast
9:15 PM 78.8 °F - 77.0 °F 94% 29.85 in 10.0 mi East 4.6 mph - N/A   Overcast
9:36 PM 78.8 °F - 77.0 °F 94% 29.85 in 10.0 mi ESE 5.8 mph - N/A   Overcast
9:55 PM 78.8 °F - 77.0 °F 94% 29.85 in 10.0 mi East 4.6 mph - N/A   Partly Cloudy
10:15 PM 78.8 °F - 77.0 °F 94% 29.85 in 10.0 mi ESE 6.9 mph - N/A   Clear
10:35 PM 78.8 °F - 77.0 °F 94% 29.86 in 10.0 mi ESE 5.8 mph - N/A   Mostly Cloudy
10:55 PM 78.8 °F - 77.0 °F 94% 29.85 in 5.0 mi East 5.8 mph - N/A   Mostly Cloudy
11:15 PM 78.8 °F - 77.0 °F 94% 29.86 in 3.0 mi East 4.6 mph - N/A   Overcast
11:35 PM 78.8 °F - 77.0 °F 94% 29.86 in 3.0 mi East 4.6 mph - N/A   Mostly Cloudy
11:55 PM 78.8 °F - 77.0 °F 94% 29.85 in 10.0 mi East 5.8 mph - N/A   Overcast